Location: ????????
(55.1591°N, 39.1782°E)
Time: 18:45:29
(UTC+00:00)

ATLAS 5 CENTAUR R/B - Pass Details

Date: 14 April 2024
Orbit: 421 x 1170 km, 63.3° (Epoch: 18 May)

Event Time Altitude Azimuth Distance (km) Brightness Sun altitude
Rises 00:53:33 0° 308° (NW) 2,805 4.8 -12.0°
Reaches altitude 10° 00:55:35 10° 309° (NW) 1,999 4.0 -11.7°
Maximum altitude 01:00:08 86° 38° (NE) 733 1.9 -11.2°
Drops below altitude 10° 01:05:51 10° 129° (SE) 2,491 4.9 -10.5°
Sets 01:08:38 0° 130° (SE) 3,555 5.7 -10.2°
